[[{"header":{"parameterUnit":"m.s-1","parameterCategory":1,"la1":30.2991,"la2":30.254,"lo1":-89.0895,"lo2":-89.0444,"dy":0.0017,"dx":0.0017,"nx":28,"ny":28,"refTime":"2024-10-11T21:00:00:Z","depth":0,"parameterNumber":2,"parameterNumberName":"U-component_of_WINDS"},"data":[0,0,0,0,0,0,0,0,0,0,0,0,0,0,0,0,0,0,0,0,0,0,0,0,0,0,0,0,0,0,0,0,0,0,0,0,0,0,0,0,0,0,0,0,0,0,0,0,0,0,0,0,0,0,0,0,0,0,-1.2956,-1.2956,0,-1.2975,-1.2975,-1.2975,-1.2921,-1.2919,-1.2918,-1.2916,-1.2937,-1.2939,-1.2941,0,0,0,0,0,0,0,0,0,0,0,0,0,-1.2876,-1.2878,-1.2956,-1.2956,-1.2957,-1.2975,-1.2975,-1.2975,-1.2921,-1.2919,-1.2917,-1.2915,-1.2936,-1.2939,-1.2941,0,0,0,0,0,0,0,0,0,0,0,0,0,-1.2904,-1.2878,-1.2956,-1.2932,-1.293,-1.2975,-1.2975,-1.2976,-1.2922,-1.2919,-1.2917,-1.2914,-1.2936,-1.2939,-1.2942,-1.3012,0,0,-1.2952,-1.2953,0,0,0,0,0,0,0,0,-1.2903,-1.2907,-1.2935,-1.2934,-1.2931,-1.2943,-1.2954,-1.2988,-1.2922,-1.2925,-1.2916,-1.2913,-1.2941,-1.2944,-1.2953,-1.3013,-1.3014,-1.2952,-1.2954,-1.2955,-1.2956,0,0,0,0,0,0,0,-1.2901,-1.2906,-1.2964,-1.2936,-1.2933,-1.2921,-1.2922,-1.2961,-1.2947,-1.2924,-1.2921,-1.2923,-1.294,-1.295,-1.2953,-1.3014,-1.2952,-1.2955,-1.2956,-1.2958,-1.3134,-1.3137,0,0,0,0,0,0,-1.2902,-1.2905,-1.2963,-1.2964,-1.2911,-1.2924,-1.2926,-1.2942,-1.2946,-1.2945,-1.2926,-1.2921,-1.2946,-1.2949,-1.2954,-1.3037,-1.2955,-1.2958,-1.296,-1.3132,-1.3135,-1.3138,0,0,0,0,0,0,-1.29,-1.2908,-1.2962,-1.2934,-1.294,-1.2928,-1.2947,-1.2944,-1.2954,-1.2947,-1.2945,-1.2938,-1.2944,-1.2949,-1.2998,-1.3037,-1.2959,-1.2962,-1.3128,-1.3133,-1.3136,-1.3204,0,0,0,0,0,0,-1.2898,-1.2907,-1.2933,-1.2935,-1.2941,-1.3006,-1.2949,-1.2946,-1.2959,-1.2953,-1.2959,-1.2957,-1.2942,-1.2994,-1.3001,-1.304,-1.2965,-1.3125,-1.313,-1.3135,-1.3198,-1.321,-1.322,0,0,0,0,0,-1.2896,-1.2951,-1.2935,-1.2942,-1.2973,-1.3008,-1.3012,-1.2994,-1.2962,-1.2989,-1.2985,-1.2957,-1.3031,-1.2999,-1.3007,-1.3048,-1.3122,-1.3129,-1.3135,-1.3193,-1.3208,-1.322,0,0,0,0,0,0,-1.2955,-1.2951,-1.2933,-1.299,-1.3,-1.2999,-1.3032,-1.3009,-1.3028,-1.3022,-1.2998,-1.3,-1.3054,-1.3055,-1.3019,-1.3116,-1.3072,-1.308,-1.3114,-1.3127,-1.3138,-1.3137,-1.2968,0,0,0,0,0,-1.2975,-1.3003,-1.2998,-1.305,-1.3056,-1.3043,-1.3057,-1.3042,-1.3052,-1.3056,-1.3055,-1.3066,-1.3092,-1.3109,-1.3133,-1.3198,-1.3199,-1.323,-1.3241,-1.325,-1.3258,-1.3294,-1.3308,-1.3158,-1.3158,-1.3158,0,0,-1.3016,-1.3018,-1.3037,-1.3062,-1.3068,-1.3098,-1.3047,-1.3081,-1.3104,-1.3061,-1.3107,-1.3108,-1.3118,-1.3176,-1.3202,-1.3179,-1.3299,-1.3258,-1.3265,-1.3268,-1.3302,-1.3316,-1.3329,-1.3163,-1.3162,-1.3161,0,0,-1.3108,-1.3111,-1.3155,-1.3162,-1.3171,-1.3162,-1.3173,-1.3176,-1.3174,-1.322,-1.3189,-1.3217,-1.3261,-1.327,-1.3281,-1.3377,-1.3353,-1.3386,-1.3443,-1.3479,-1.349,-1.3501,-1.3537,-1.355,-1.3393,-1.3393,-1.3393,0,-1.3158,-1.3202,-1.318,-1.3217,-1.323,-1.3192,-1.3237,-1.3245,-1.3262,-1.3272,-1.3246,-1.3303,-1.3307,-1.3368,-1.3391,-1.34,-1.3413,-1.3385,-1.349,-1.35,-1.351,-1.3544,-1.3557,-1.3397,-1.3397,-1.3396,-1.3396,0,-1.3264,-1.3296,-1.333,-1.3347,-1.3364,-1.3405,-1.339,-1.3409,-1.3393,-1.3388,-1.3436,-1.344,-1.3465,-1.3478,-1.3462,-1.3537,-1.3522,-1.3494,-1.3449,-1.3529,-1.356,-1.3573,-1.3403,-1.3402,-1.34,-1.3399,0,0,-1.3393,-1.3399,-1.3412,-1.342,-1.3428,-1.3452,-1.3492,-1.3515,-1.3533,-1.3546,-1.358,-1.3619,-1.3593,-1.3605,-1.3591,-1.3622,-1.37,-1.359,-1.359,-1.3611,-1.3784,-1.3807,-1.3822,-1.3683,-1.3686,-1.3688,-1.3784,0,-1.3484,-1.3552,-1.3534,-1.3602,-1.3631,-1.3597,-1.3632,-1.3641,-1.3637,-1.3663,-1.3658,-1.3687,-1.365,-1.3657,-1.3687,-1.3684,-1.3735,-1.3677,-1.3716,-1.3718,-1.3715,-1.3838,-1.3861,-1.3952,-1.3796,-1.3798,-1.3799,0,-1.3599,-1.3617,-1.3688,-1.3692,-1.3704,-1.3735,-1.3756,-1.378,-1.3791,-1.3786,-1.38,-1.378,-1.382,-1.3774,-1.3831,-1.3792,-1.3807,-1.3809,-1.3812,-1.3815,-1.3764,-1.3846,-1.398,-1.3994,-1.3818,-1.3817,-1.3815,0,-1.3688,-1.3729,-1.3777,-1.3785,-1.3791,-1.3815,-1.3818,-1.3826,-1.3842,-1.386,-1.3871,-1.3894,-1.3907,-1.3926,-1.3913,-1.388,-1.3972,-1.3925,-1.3971,-1.3971,-1.3992,-1.3991,-1.4131,-1.4,-1.4,-1.4,-1.3999,0,-1.3792,-1.3837,-1.3817,-1.3847,-1.3897,-1.3877,-1.3927,-1.3927,-1.3935,-1.3965,-1.3936,-1.3965,-1.3945,-1.3973,-1.3963,-1.4012,-1.4018,-1.4016,-1.4013,-1.402,-1.402,-1.403,-1.4024,-1.4003,-1.4003,-1.4002,-1.4001,0,-1.3899,-1.3888,-1.3938,-1.394,-1.3942,-1.3979,-1.3981,-1.4009,-1.4004,-1.4042,-1.405,-1.4042,-1.4073,-1.4062,-1.4095,-1.4088,-1.4152,-1.414,-1.4148,-1.4146,-1.4193,-1.4189,-1.4345,-1.4365,-1.422,-1.4221,-1.4223,0,-1.3967,-1.4001,-1.4006,-1.4024,-1.403,-1.4059,-1.4075,-1.4057,-1.4075,-1.409,-1.4117,-1.4146,-1.4168,-1.422,-1.4218,-1.4244,-1.4233,-1.4286,-1.4237,-1.4242,-1.4235,-1.4234,-1.4238,-1.4296,-1.4298,-1.4299,-1.43,0,-1.4088,-1.4081,-1.4105,-1.4128,-1.4148,-1.4165,-1.4179,-1.4196,-1.4178,-1.42,-1.4232,-1.4249,-1.4284,-1.4313,-1.4337,-1.4342,-1.4319,-1.4316,-1.4328,-1.4335,-1.4339,-1.4339,-1.4176,-1.4312,-1.4311,-1.431,-1.4309,-1.4309,-1.4178,-1.4207,-1.4217,-1.4245,-1.4254,-1.4268,-1.4295,-1.4293,-1.4319,-1.4346,-1.4333,-1.4371,-1.4382,-1.4411,-1.4419,-1.4449,-1.4428,-1.4446,-1.4451,-1.4455,-1.4462,-1.4334,-1.4453,-1.4453,-1.4452,-1.4452,-1.4452,0,-1.4299,-1.4304,-1.433,-1.4351,-1.4374,-1.435,-1.4365,-1.4386,-1.4418,-1.443,-1.4453,-1.449,-1.4519,-1.4519,-1.4547,-1.457,-1.4561,-1.4578,-1.4577,-1.4579,-1.4478,-1.4465,-1.4586,-1.4586,-1.4586,-1.4586,-1.4586,-1.4586,-1.4365,-1.4413,-1.4408,-1.4461,-1.4465,-1.4501,-1.4512,-1.4526,-1.4536,-1.4578,-1.4602,-1.4602,-1.461,-1.4638,-1.4664,-1.4663,-1.4675,-1.4697,-1.4693,-1.4599,-1.4586,-1.4573,-1.4561,-1.4699,-1.47,-1.4791,-1.4792,-1.4793]},{"header":{"parameterUnit":"m.s-1","parameterCategory":1,"la1":30.2991,"la2":30.254,"lo1":-89.0895,"lo2":-89.0444,"dy":0.0017,"dx":0.0017,"nx":28,"ny":28,"refTime":"2024-10-11T21:00:00:Z","depth":0,"parameterNumber":3,"parameterNumberName":"V-component_of_WINDS"},"data":[0,0,0,0,0,0,0,0,0,0,0,0,0,0,0,0,0,0,0,0,0,0,0,0,0,0,0,0,0,0,0,0,0,0,0,0,0,0,0,0,0,0,0,0,0,0,0,0,0,0,0,0,0,0,0,0,0,0,-0.2742,-0.2743,0,-0.2799,-0.28,-0.2801,-0.2799,-0.2798,-0.2797,-0.2796,-0.2859,-0.2861,-0.2863,0,0,0,0,0,0,0,0,0,0,0,0,0,-0.2636,-0.2638,-0.2742,-0.2743,-0.2744,-0.2799,-0.28,-0.2801,-0.2799,-0.2798,-0.2797,-0.2796,-0.2858,-0.2861,-0.2864,0,0,0,0,0,0,0,0,0,0,0,0,0,-0.2687,-0.2639,-0.2742,-0.2749,-0.275,-0.2799,-0.28,-0.2801,-0.2799,-0.2798,-0.2797,-0.2795,-0.2857,-0.286,-0.2864,-0.291,0,0,-0.2875,-0.2877,0,0,0,0,0,0,0,0,-0.2684,-0.2691,-0.2748,-0.2749,-0.275,-0.279,-0.2785,-0.2838,-0.2799,-0.2781,-0.2796,-0.2795,-0.2837,-0.2842,-0.2856,-0.2913,-0.2916,-0.2875,-0.2878,-0.2879,-0.288,0,0,0,0,0,0,0,-0.268,-0.2688,-0.2765,-0.2748,-0.275,-0.2751,-0.2757,-0.2795,-0.2815,-0.2782,-0.2782,-0.2789,-0.2838,-0.2852,-0.2857,-0.2917,-0.2875,-0.2878,-0.2881,-0.2882,-0.3018,-0.3019,0,0,0,0,0,0,-0.2675,-0.2685,-0.2763,-0.2767,-0.2713,-0.2754,-0.2761,-0.2779,-0.2815,-0.2819,-0.279,-0.2788,-0.2847,-0.2853,-0.2859,-0.2918,-0.2879,-0.2882,-0.2885,-0.3016,-0.3018,-0.302,0,0,0,0,0,0,-0.2673,-0.2682,-0.2761,-0.2726,-0.2736,-0.2757,-0.2778,-0.2781,-0.2795,-0.282,-0.2824,-0.2801,-0.2846,-0.2854,-0.2898,-0.292,-0.2884,-0.2887,-0.3015,-0.3017,-0.3019,-0.3035,0,0,0,0,0,0,-0.2669,-0.2681,-0.2698,-0.2726,-0.2738,-0.2797,-0.2779,-0.2783,-0.2801,-0.28,-0.2832,-0.2836,-0.2846,-0.2893,-0.2902,-0.2925,-0.289,-0.3013,-0.3016,-0.3018,-0.3033,-0.3037,-0.3042,0,0,0,0,0,-0.2666,-0.27,-0.2699,-0.2708,-0.2759,-0.2798,-0.2805,-0.2815,-0.2803,-0.2821,-0.2837,-0.2835,-0.2916,-0.2897,-0.2907,-0.2932,-0.3012,-0.3015,-0.3018,-0.3031,-0.3037,-0.3041,0,0,0,0,0,0,-0.2675,-0.2704,-0.2703,-0.2747,-0.277,-0.2798,-0.2821,-0.282,-0.2848,-0.2846,-0.2858,-0.2865,-0.291,-0.2925,-0.2903,-0.298,-0.2962,-0.2968,-0.2969,-0.2974,-0.2979,-0.2975,-0.2893,0,0,0,0,0,-0.2682,-0.271,-0.2734,-0.2772,-0.2783,-0.28,-0.2817,-0.2823,-0.2848,-0.2858,-0.2877,-0.2903,-0.2934,-0.2955,-0.2985,-0.3034,-0.3042,-0.3056,-0.306,-0.3064,-0.3069,-0.3099,-0.3106,-0.303,-0.303,-0.303,0,0,-0.2697,-0.2717,-0.2734,-0.2774,-0.2792,-0.2823,-0.2808,-0.2841,-0.2864,-0.2863,-0.2906,-0.2921,-0.295,-0.2997,-0.3019,-0.3012,-0.3092,-0.3068,-0.3071,-0.3074,-0.3103,-0.311,-0.3117,-0.3033,-0.3032,-0.3032,0,0,-0.2741,-0.2757,-0.2791,-0.281,-0.2838,-0.2849,-0.2857,-0.2885,-0.2895,-0.2937,-0.2938,-0.2966,-0.3019,-0.3041,-0.3059,-0.3111,-0.3112,-0.3121,-0.3145,-0.3174,-0.318,-0.3186,-0.3207,-0.3214,-0.3126,-0.3126,-0.3126,0,-0.2757,-0.2802,-0.2809,-0.2842,-0.2861,-0.286,-0.2896,-0.2914,-0.295,-0.2964,-0.2954,-0.3022,-0.3041,-0.3095,-0.3108,-0.3121,-0.3133,-0.3119,-0.3178,-0.3184,-0.3189,-0.321,-0.3218,-0.3127,-0.3127,-0.3126,-0.3126,0,-0.2822,-0.2853,-0.2877,-0.2912,-0.2933,-0.2967,-0.2981,-0.3002,-0.3005,-0.3018,-0.3063,-0.3086,-0.3121,-0.3134,-0.3137,-0.3189,-0.3183,-0.3175,-0.3159,-0.3197,-0.3217,-0.3225,-0.3128,-0.3128,-0.3128,-0.3127,0,0,-0.2875,-0.2913,-0.2922,-0.2939,-0.2969,-0.2994,-0.3029,-0.3063,-0.3082,-0.3107,-0.3138,-0.3183,-0.3177,-0.3197,-0.3203,-0.3228,-0.3272,-0.3218,-0.3219,-0.323,-0.3333,-0.334,-0.3349,-0.3271,-0.3272,-0.3273,-0.3331,0,-0.2924,-0.2985,-0.2993,-0.3047,-0.3078,-0.3077,-0.3108,-0.3131,-0.3144,-0.3172,-0.3187,-0.322,-0.3207,-0.322,-0.3244,-0.3261,-0.3293,-0.3257,-0.3303,-0.3304,-0.3298,-0.3359,-0.3367,-0.342,-0.3339,-0.334,-0.3341,0,-0.299,-0.3017,-0.3075,-0.3103,-0.3116,-0.3143,-0.3176,-0.3202,-0.3229,-0.3237,-0.3259,-0.3262,-0.3301,-0.328,-0.3334,-0.331,-0.3329,-0.334,-0.3342,-0.3349,-0.3327,-0.3371,-0.3437,-0.3447,-0.3352,-0.3352,-0.3351,0,-0.3027,-0.3077,-0.3118,-0.3132,-0.3165,-0.3185,-0.32,-0.3225,-0.3246,-0.3274,-0.3288,-0.3321,-0.334,-0.3366,-0.3379,-0.3362,-0.3433,-0.3413,-0.3443,-0.3443,-0.346,-0.3459,-0.3534,-0.3467,-0.3467,-0.3467,-0.3467,0,-0.3083,-0.3119,-0.3135,-0.3161,-0.3202,-0.3211,-0.3252,-0.3266,-0.3289,-0.3319,-0.332,-0.3348,-0.3362,-0.3393,-0.3403,-0.3448,-0.3456,-0.3465,-0.3468,-0.3467,-0.3466,-0.3481,-0.3479,-0.3469,-0.3468,-0.3468,-0.3468,0,-0.3131,-0.3144,-0.3189,-0.3217,-0.3224,-0.3254,-0.3278,-0.3304,-0.3316,-0.3354,-0.3364,-0.3383,-0.342,-0.3434,-0.3479,-0.3486,-0.3539,-0.3537,-0.353,-0.3532,-0.3562,-0.356,-0.3651,-0.3665,-0.3586,-0.3587,-0.3588,0,-0.3168,-0.3196,-0.3226,-0.3246,-0.3261,-0.3293,-0.3313,-0.3323,-0.3345,-0.3378,-0.3401,-0.3437,-0.3467,-0.3526,-0.3546,-0.358,-0.3582,-0.3611,-0.3587,-0.3586,-0.3586,-0.3585,-0.359,-0.3617,-0.3618,-0.3618,-0.3619,0,-0.3232,-0.3237,-0.3266,-0.3298,-0.3323,-0.3349,-0.3374,-0.339,-0.3404,-0.3429,-0.3466,-0.3489,-0.3535,-0.3572,-0.3608,-0.3625,-0.3626,-0.3626,-0.3635,-0.3636,-0.3632,-0.3637,-0.3546,-0.3624,-0.3624,-0.3623,-0.3623,-0.3623,-0.3278,-0.3304,-0.333,-0.3363,-0.3382,-0.3406,-0.3433,-0.3448,-0.3478,-0.3516,-0.352,-0.3561,-0.3588,-0.3636,-0.3655,-0.3688,-0.3681,-0.3693,-0.3697,-0.3701,-0.3705,-0.3623,-0.3694,-0.3694,-0.3694,-0.3694,-0.3694,0,-0.3346,-0.3362,-0.3392,-0.3427,-0.3454,-0.3449,-0.3477,-0.35,-0.3536,-0.3561,-0.359,-0.3634,-0.367,-0.3692,-0.3729,-0.3751,-0.3752,-0.3761,-0.3761,-0.3766,-0.3708,-0.3697,-0.3759,-0.3759,-0.3759,-0.3759,-0.3759,-0.3759,-0.3384,-0.3428,-0.3436,-0.349,-0.3506,-0.3546,-0.3562,-0.3585,-0.3605,-0.3654,-0.3684,-0.3697,-0.3721,-0.376,-0.3794,-0.3799,-0.3814,-0.3824,-0.383,-0.3776,-0.3769,-0.3763,-0.3753,-0.3826,-0.3826,-0.3885,-0.3886,-0.3886]}]]